�N����,����,�~����,�C��,���x,�C��,����,���ϕ���,�ő�u�ԕ���,�ő厞����,���˗�,�I�_���x,�n�����x,�ő啗���N��,DTYPE
"19/10/05","00:10",0.0,19.9,83.2,1006.9,318.4,2.0,3.5,315.8,0.00,17.0,22.7,"00:04:40",1
"19/10/05","00:20",0.0,19.6,84.0,1006.7,307.6,1.2,4.4,341.1,0.00,16.9,22.7,"00:14:24",1
"19/10/05","00:30",0.0,19.5,84.3,1006.9,315.8,0.8,2.0,332.3,0.00,16.8,22.6,"00:25:28",1
"19/10/05","00:40",0.0,19.2,84.9,1006.7,318.7,1.1,2.1,338.3,0.00,16.6,22.6,"00:32:40",1
"19/10/05","00:50",0.0,18.8,86.0,1007.1,309.1,0.8,1.2,322.4,0.00,16.4,22.5,"00:40:16",1
"19/10/05","01:00",0.0,18.8,86.8,1006.9,349.9,1.2,2.2,351.4,0.00,16.6,22.4,"00:51:12",1
"19/10/05","01:10",0.0,18.7,87.6,1006.9,312.4,0.8,1.6,319.5,0.00,16.6,22.5,"01:09:36",1
"19/10/05","01:20",0.0,18.7,88.2,1007.4,307.7,0.7,1.6,320.9,0.00,16.7,22.4,"01:12:16",1
"19/10/05","01:30",0.0,18.7,88.1,1007.4,297.9,0.5,1.0,348.9,0.00,16.7,22.3,"01:20:08",1
"19/10/05","01:40",0.0,18.9,88.5,1007.6,330.1,0.7,2.1,342.9,0.00,17.0,22.3,"01:36:40",1
"19/10/05","01:50",0.0,19.1,88.2,1007.6,328.1,1.8,5.1,337.4,0.00,17.1,22.2,"01:46:48",1
"19/10/05","02:00",0.0,19.3,87.7,1008.1,318.6,2.1,4.1,337.6,0.00,17.2,22.3,"01:51:36",1
"19/10/05","02:10",0.0,19.5,87.3,1007.6,318.2,1.7,3.5,332.5,0.00,17.4,22.3,"02:00:48",1
"19/10/05","02:20",0.0,19.5,86.7,1007.8,289.8,1.2,2.2,310.7,0.00,17.3,22.2,"02:15:04",1
"19/10/05","02:30",0.0,19.6,86.3,1007.8,311.2,1.6,3.6,319.8,0.00,17.3,22.3,"02:27:20",1
"19/10/05","02:40",0.0,19.7,85.7,1007.8,325.6,2.5,5.1,333.3,0.00,17.3,22.0,"02:32:32",1
"19/10/05","02:50",0.0,19.8,85.1,1007.6,327.2,2.5,4.8,323.6,0.00,17.3,22.3,"02:43:36",1
"19/10/05","03:00",0.0,19.8,84.7,1007.8,331.1,2.5,6.0,330.2,0.00,17.2,22.2,"02:54:40",1
"19/10/05","03:10",0.0,19.8,84.4,1007.8,326.0,2.0,3.6,326.7,0.00,17.1,22.2,"03:00:40",1
"19/10/05","03:20",0.0,19.8,84.2,1007.8,332.2,2.2,3.6,332.9,0.00,17.1,22.1,"03:18:40",1
"19/10/05","03:30",0.2,19.8,84.2,1007.4,317.8,1.8,3.7,329.0,0.00,17.1,22.1,"03:23:20",1
"19/10/05","03:40",0.0,19.8,84.2,1007.8,326.0,2.2,4.1,335.6,0.00,17.1,22.3,"03:35:04",1
"19/10/05","03:50",0.0,19.7,84.3,1007.6,322.5,2.0,4.0,327.3,0.00,17.0,22.1,"03:44:48",1
"19/10/05","04:00",0.0,19.6,84.4,1007.4,327.9,2.0,3.6,327.4,0.00,16.9,22.2,"03:57:44",1
"19/10/05","04:10",0.0,19.5,84.8,1007.4,326.3,1.8,2.9,336.5,0.00,16.9,22.2,"04:04:00",1
"19/10/05","04:20",0.0,19.4,85.0,1007.6,327.4,2.1,4.0,323.4,0.00,16.9,22.2,"04:12:00",1
"19/10/05","04:30",0.0,19.4,85.3,1007.8,333.3,2.2,3.5,343.1,0.00,16.9,22.0,"04:28:32",1
"19/10/05","04:40",0.0,19.4,85.5,1007.4,328.9,2.2,3.9,342.0,0.00,16.9,22.0,"04:32:56",1
"19/10/05","04:50",0.0,19.3,85.8,1007.4,327.6,1.7,2.8,335.5,0.00,16.9,22.0,"04:41:04",1
"19/10/05","05:00",0.0,19.2,86.2,1007.6,329.9,1.6,3.2,319.6,0.00,16.9,22.0,"04:53:04",1
"19/10/05","05:10",0.0,19.2,86.6,1008.1,338.5,1.2,2.4,329.0,0.00,17.0,21.8,"05:00:24",1
"19/10/05","05:20",0.0,19.2,87.0,1007.6,324.1,1.2,2.5,335.1,0.00,17.0,22.0,"05:17:36",1
"19/10/05","05:30",0.0,19.1,87.0,1007.6,317.4,1.1,2.2,334.6,0.00,16.9,21.9,"05:26:48",1
"19/10/05","05:40",0.0,19.0,86.6,1007.6,315.5,1.3,2.0,336.4,0.00,16.8,21.9,"05:34:08",1
"19/10/05","05:50",0.0,18.9,86.7,1007.6,319.3,1.2,2.1,325.8,0.00,16.7,21.7,"05:41:28",1
"19/10/05","06:00",0.0,18.8,87.2,1007.6,312.0,1.2,2.6,319.5,0.00,16.7,21.9,"05:54:16",1
"19/10/05","06:10",0.0,18.7,87.3,1007.1,323.2,1.6,2.9,319.0,0.00,16.6,21.9,"06:00:48",1
"19/10/05","06:20",0.0,18.7,87.3,1007.6,315.0,1.3,2.6,346.7,0.00,16.6,21.8,"06:10:56",1
"19/10/05","06:30",0.0,18.6,88.0,1007.4,303.0,1.1,2.2,323.4,0.00,16.6,21.8,"06:26:08",1
"19/10/05","06:40",0.0,18.6,88.1,1007.6,305.1,1.1,2.2,327.2,0.00,16.6,21.7,"06:31:44",1
"19/10/05","06:50",0.0,18.7,88.0,1007.4,308.2,1.1,2.0,339.7,0.00,16.7,21.6,"06:41:28",1
"19/10/05","07:00",0.0,18.7,88.6,1007.6,303.4,1.0,2.4,336.6,0.00,16.8,21.6,"06:59:12",1
"19/10/05","07:10",0.0,18.9,88.4,1007.8,319.8,1.3,2.6,321.7,0.00,17.0,21.7,"07:00:56",1
"19/10/05","07:20",0.0,19.2,88.2,1008.1,328.1,2.1,3.6,335.1,0.01,17.2,21.7,"07:18:16",1
"19/10/05","07:30",0.0,19.4,87.5,1008.1,318.9,1.7,3.5,335.6,0.02,17.3,21.6,"07:28:24",1
"19/10/05","07:40",0.0,19.7,87.0,1008.1,319.0,1.7,3.1,337.1,0.02,17.5,21.7,"07:32:24",1
"19/10/05","07:50",0.0,20.0,86.3,1008.1,309.3,1.5,2.6,337.6,0.02,17.7,22.0,"07:46:56",1
"19/10/05","08:00",0.0,20.0,85.6,1008.1,315.9,1.7,3.1,314.4,0.03,17.6,21.7,"07:52:08",1
"19/10/05","08:10",0.0,20.1,84.5,1008.6,324.2,2.1,3.9,340.4,0.03,17.4,21.7,"08:06:00",1
"19/10/05","08:20",0.0,20.4,83.6,1008.6,317.9,1.7,2.7,339.9,0.05,17.6,21.7,"08:12:56",1
"19/10/05","08:30",0.0,21.0,82.6,1008.1,296.3,1.1,2.4,344.3,0.10,18.0,21.9,"08:26:48",1
"19/10/05","08:40",0.2,21.3,80.3,1008.6,304.1,1.2,3.1,327.4,0.13,17.8,22.1,"08:34:08",1
"19/10/05","08:50",0.0,22.1,78.3,1008.3,295.8,1.1,3.9,338.7,0.21,18.2,22.2,"08:44:32",1
"19/10/05","09:00",0.0,21.3,79.1,1008.6,307.2,1.2,2.9,335.0,0.09,17.6,22.2,"08:56:24",1
"19/10/05","09:10",0.0,21.4,79.0,1008.3,300.4,1.5,3.2,337.0,0.10,17.6,22.1,"09:04:56",1
"19/10/05","09:20",0.0,21.6,78.3,1008.3,283.1,1.5,2.6,251.5,0.10,17.7,22.4,"09:13:28",1
"19/10/05","09:30",0.0,21.5,77.9,1008.3,276.2,1.2,2.4,324.5,0.10,17.5,22.2,"09:26:16",1
"19/10/05","09:40",0.0,21.6,77.4,1008.1,287.9,1.3,2.7,293.2,0.11,17.5,22.6,"09:38:40",1
"19/10/05","09:50",0.0,21.8,77.4,1007.8,295.6,1.1,2.8,311.7,0.08,17.7,22.5,"09:43:28",1
"19/10/05","10:00",0.0,21.7,77.0,1008.3,293.9,1.2,2.4,306.3,0.09,17.5,22.6,"09:56:00",1
"19/10/05","10:10",0.0,21.9,77.2,1008.1,317.4,1.3,2.9,338.3,0.12,17.8,22.7,"10:08:08",1
"19/10/05","10:20",0.0,22.8,73.7,1007.8,303.9,1.3,3.3,324.2,0.34,17.9,22.9,"10:14:32",1
"19/10/05","10:30",0.0,22.6,75.3,1008.3,274.6,1.3,2.8,334.8,0.15,18.0,22.9,"10:24:32",1
"19/10/05","10:40",0.0,22.2,76.4,1008.1,271.5,1.5,2.9,279.9,0.13,17.9,23.0,"10:37:28",1
"19/10/05","10:50",0.0,22.5,76.0,1007.6,279.0,1.2,4.2,236.1,0.14,18.1,23.0,"10:42:40",1
"19/10/05","11:00",0.0,23.0,74.6,1007.8,279.7,1.0,2.9,328.8,0.21,18.3,23.2,"10:59:52",1
"19/10/05","11:10",0.0,22.9,72.4,1007.8,300.3,1.2,2.7,345.6,0.19,17.7,23.2,"11:00:16",1
"19/10/05","11:20",0.0,23.0,71.6,1007.6,313.6,1.0,2.2,343.6,0.13,17.6,23.3,"11:19:04",1
"19/10/05","11:30",0.0,24.1,68.3,1007.1,275.7,1.0,2.4,332.3,0.52,17.9,23.4,"11:26:40",1
"19/10/05","11:40",0.0,23.8,67.5,1006.9,18.0,1.2,4.3,41.6,0.16,17.5,23.4,"11:39:20",1
"19/10/05","11:50",0.0,23.4,69.6,1006.7,327.1,1.5,3.1,341.2,0.09,17.6,23.7,"11:42:32",1
"19/10/05","12:00",0.0,23.8,68.7,1006.7,295.1,1.5,3.2,333.4,0.27,17.7,23.7,"11:57:44",1
"19/10/05","12:10",0.0,24.8,63.9,1006.9,319.6,1.6,3.7,349.9,0.50,17.5,23.9,"12:08:32",1
"19/10/05","12:20",0.0,24.2,65.6,1006.7,333.2,2.6,5.8,342.8,0.27,17.4,24.0,"12:13:04",1
"19/10/05","12:30",0.0,25.0,62.8,1006.7,352.3,2.0,4.0,346.9,0.41,17.5,24.2,"12:21:44",1
"19/10/05","12:40",0.0,24.9,61.8,1006.2,324.8,1.2,2.4,241.1,0.48,17.1,24.5,"12:36:32",1
"19/10/05","12:50",0.0,25.4,60.9,1006.0,355.1,1.3,3.6,329.4,0.43,17.4,24.4,"12:48:56",1
"19/10/05","13:00",0.0,25.2,60.6,1005.7,351.6,2.1,5.0,341.1,0.39,17.1,24.6,"12:55:12",1
"19/10/05","13:10",0.0,24.6,62.6,1005.5,340.8,2.1,4.8,344.6,0.21,17.0,24.7,"13:06:24",1
"19/10/05","13:20",0.0,25.5,60.9,1005.5,336.6,2.1,5.7,348.8,0.39,17.4,24.8,"13:10:56",1
"19/10/05","13:30",0.2,25.7,59.1,1005.2,341.3,2.2,5.8,353.8,0.53,17.2,25.0,"13:25:36",1
"19/10/05","13:40",0.0,26.0,58.3,1005.0,349.9,1.7,4.5,335.4,0.50,17.2,25.1,"13:34:34",1
"19/10/05","13:50",0.0,26.1,58.4,1004.3,346.2,1.2,3.1,333.1,0.47,17.3,25.2,"13:43:20",1
"19/10/05","14:00",0.0,25.4,60.3,1004.8,332.4,2.2,4.9,337.9,0.35,17.2,25.6,"13:52:40",1
"19/10/05","14:10",0.0,26.0,57.3,1004.8,348.8,2.1,4.5,342.1,0.41,17.0,25.6,"14:04:24",1
"19/10/05","14:20",0.0,25.9,56.6,1004.8,18.2,2.0,5.5,21.4,0.38,16.7,25.6,"14:10:24",1
"19/10/05","14:30",0.0,26.0,56.9,1004.5,3.1,2.0,4.4,343.1,0.40,16.8,25.6,"14:23:44",1
"19/10/05","14:40",0.0,26.2,57.1,1004.5,345.3,1.6,4.0,72.2,0.38,17.1,25.8,"14:30:40",1
"19/10/05","14:50",0.0,26.3,57.7,1003.6,8.9,1.1,2.7,357.9,0.37,17.3,25.9,"14:44:08",1
"19/10/05","15:00",0.0,26.2,57.6,1004.1,23.1,1.1,2.5,62.1,0.35,17.2,26.0,"14:53:52",1
"19/10/05","15:10",0.0,26.0,59.1,1003.6,348.5,1.8,5.1,333.4,0.32,17.4,25.9,"15:03:04",1
"19/10/05","15:20",0.0,26.2,59.5,1004.1,357.9,1.5,2.9,344.8,0.30,17.7,25.9,"15:14:24",1
"19/10/05","15:30",0.0,25.9,58.4,1004.1,356.4,1.6,4.4,16.3,0.28,17.2,25.9,"15:21:44",1
"19/10/05","15:40",0.0,26.1,59.7,1004.1,356.3,1.6,3.7,347.4,0.26,17.7,26.2,"15:37:36",1
"19/10/05","15:50",0.0,25.9,58.0,1004.1,352.4,1.5,3.6,21.4,0.24,17.0,26.0,"15:48:16",1
"19/10/05","16:00",0.0,25.8,58.5,1004.5,354.8,1.7,3.6,25.1,0.21,17.1,26.1,"15:54:40",1
"19/10/05","16:10",0.0,25.7,58.8,1004.8,340.0,1.8,3.9,36.2,0.19,17.1,25.9,"16:00:16",1
"19/10/05","16:20",0.0,25.9,57.7,1004.8,355.5,2.2,4.1,342.3,0.16,17.0,25.7,"16:13:28",1
"19/10/05","16:30",0.0,25.6,57.8,1005.0,348.6,2.3,4.5,321.6,0.12,16.7,25.7,"16:22:08",1
"19/10/05","16:40",0.0,25.1,59.6,1005.2,348.4,2.1,6.0,347.7,0.06,16.7,25.7,"16:38:40",1
"19/10/05","16:50",0.0,24.7,60.8,1005.2,343.3,2.0,5.1,346.5,0.03,16.7,25.5,"16:48:08",1
"19/10/05","17:00",0.0,24.4,63.0,1005.5,338.8,2.0,5.2,338.7,0.03,16.9,25.4,"16:52:16",1
"19/10/05","17:10",0.0,23.9,64.7,1006.0,349.4,1.7,5.0,334.2,0.01,16.9,25.3,"17:09:20",1
"19/10/05","17:20",0.2,23.7,64.7,1006.0,347.9,2.8,7.1,338.7,0.03,16.7,25.1,"17:15:28",1
"19/10/05","17:30",0.0,23.4,64.9,1006.2,346.8,2.1,5.5,336.9,0.02,16.5,24.9,"17:29:04",1
"19/10/05","17:40",0.0,23.0,65.4,1006.2,341.4,2.5,4.4,349.5,0.00,16.2,24.9,"17:38:00",1
"19/10/05","17:50",0.0,22.7,66.4,1006.7,335.3,2.0,4.2,334.5,0.00,16.2,24.7,"17:47:44",1
"19/10/05","18:00",0.0,22.4,67.5,1006.4,340.3,2.1,4.1,326.0,0.00,16.1,24.6,"17:55:36",1
"19/10/05","18:10",0.0,22.0,68.6,1006.4,336.4,1.6,2.7,344.2,0.00,16.0,24.3,"18:02:48",1
"19/10/05","18:20",0.0,21.6,70.1,1007.1,335.6,2.0,4.9,340.9,0.00,16.0,24.4,"18:18:56",1
"19/10/05","18:30",0.0,21.4,70.9,1006.9,336.8,2.0,3.3,341.3,0.00,15.9,23.9,"18:23:28",1
"19/10/05","18:40",0.0,21.1,72.5,1007.1,334.7,1.7,3.6,333.1,0.00,16.0,23.9,"18:39:04",1
"19/10/05","18:50",0.0,20.9,74.0,1007.4,334.5,1.8,2.7,325.1,0.00,16.1,23.9,"18:46:56",1
"19/10/05","19:00",0.0,20.7,75.5,1007.4,335.6,2.1,4.0,346.8,0.00,16.3,23.8,"18:56:08",1
"19/10/05","19:10",0.0,20.7,75.5,1007.6,331.4,1.7,2.9,334.8,0.00,16.3,23.8,"19:03:20",1
"19/10/05","19:20",0.0,20.5,75.6,1008.1,331.5,1.3,2.6,341.1,0.00,16.1,23.6,"19:14:48",1
"19/10/05","19:30",0.0,20.1,76.9,1008.1,330.1,1.0,2.0,349.7,0.00,16.0,23.3,"19:22:48",1
"19/10/05","19:40",0.0,19.8,78.6,1008.1,322.0,1.1,2.8,343.0,0.00,16.0,23.4,"19:38:32",1
"19/10/05","19:50",0.0,19.8,79.3,1008.3,322.5,1.7,4.2,345.7,0.00,16.2,23.1,"19:42:16",1
"19/10/05","20:00",0.0,19.6,79.7,1008.6,320.6,0.8,1.6,335.6,0.00,16.0,23.3,"19:53:20",1
"19/10/05","20:10",0.0,19.0,81.2,1008.6,348.3,0.6,1.8,322.7,0.00,15.7,23.1,"20:08:32",1
"19/10/05","20:20",0.0,18.4,83.3,1008.6,321.3,1.3,1.7,311.4,0.00,15.6,23.0,"20:11:44",1
"19/10/05","20:30",0.0,18.1,85.4,1008.6,301.6,1.0,1.6,320.2,0.00,15.7,23.1,"20:21:44",1
"19/10/05","20:40",0.0,17.9,86.9,1008.6,293.4,0.6,1.1,328.3,0.00,15.7,22.7,"20:35:12",1
"19/10/05","20:50",0.0,17.7,87.7,1008.6,304.0,1.0,1.6,323.2,0.00,15.7,22.8,"20:49:36",1
"19/10/05","21:00",0.0,17.5,88.5,1009.0,298.2,1.0,1.3,320.3,0.00,15.6,22.7,"20:50:08",1
"19/10/05","21:10",0.0,17.5,89.1,1009.0,306.6,1.0,1.3,294.2,0.00,15.7,22.6,"21:00:48",1
"19/10/05","21:20",0.0,17.7,89.7,1009.3,324.3,1.2,2.1,334.0,0.00,16.0,22.6,"21:13:12",1
"19/10/05","21:30",0.0,17.7,89.5,1009.0,330.8,1.2,1.7,341.5,0.00,16.0,22.7,"21:21:52",1
"19/10/05","21:40",0.0,17.7,90.0,1009.0,296.2,0.7,1.6,315.0,0.00,16.1,22.6,"21:30:32",1
"19/10/05","21:50",0.0,17.7,90.4,1009.3,288.4,0.8,1.3,318.5,0.00,16.1,22.5,"21:46:40",1
"19/10/05","22:00",0.0,17.8,90.8,1009.0,305.4,0.7,1.4,321.1,0.00,16.3,22.3,"21:51:04",1
"19/10/05","22:10",0.0,17.9,90.7,1009.0,315.7,1.1,1.8,348.0,0.00,16.4,22.3,"22:01:44",1
"19/10/05","22:20",0.0,17.9,90.8,1009.3,306.2,1.1,1.7,313.2,0.00,16.4,22.4,"22:10:56",1
"19/10/05","22:30",0.0,18.0,90.9,1008.8,306.1,1.0,1.6,324.9,0.00,16.5,22.2,"22:25:28",1
"19/10/05","22:40",0.0,18.1,90.9,1009.3,311.1,1.1,1.7,352.9,0.00,16.6,22.0,"22:33:04",1
"19/10/05","22:50",0.0,18.0,90.9,1009.3,287.9,0.8,1.3,318.5,0.00,16.5,22.2,"22:44:32",1
"19/10/05","23:00",0.0,18.2,91.0,1009.3,312.7,0.8,1.3,330.7,0.00,16.7,22.1,"22:57:20",1
"19/10/05","23:10",0.0,18.4,90.6,1009.5,320.2,1.2,1.9,337.3,0.00,16.9,22.2,"23:03:20",1
"19/10/05","23:20",0.0,18.6,90.0,1009.5,318.1,1.7,3.5,335.4,0.00,17.0,22.1,"23:11:44",1
"19/10/05","23:30",0.0,18.9,89.5,1009.5,309.5,1.2,2.7,339.6,0.00,17.2,22.2,"23:21:20",1
"19/10/05","23:40",0.0,19.0,89.0,1009.7,322.1,1.5,2.1,336.5,0.00,17.2,22.3,"23:31:12",1
"19/10/05","23:50",0.0,19.1,88.3,1009.7,316.3,1.1,1.9,321.2,0.00,17.2,22.0,"23:40:56",1
"19/10/05","24:00",0.0,19.1,87.6,1010.0,340.3,1.0,1.6,323.3,0.00,17.0,22.2,"23:55:04",1
